Precipitable_Water
1.57 1.59 1.47 1.41 1.40 1.40 1.47 1.51 1.50 1.52 1.57 1.60 1.67 1.72 1.82 1.75 1.82 1.79 1.76 1.70 1.61 1.55 1.45 1.46 1.43 1.57 1.65 1.73 1.82 1.71 1.72 1.73 1.42 1.37 1.57 1.80 1.98 2.03 2.06 2.26 2.28 2.12 2.08
1.68 1.68 1.65 1.56 1.55 1.45 1.40 1.45 1.51 1.53 1.62 1.65 1.65 1.71 1.77 1.76 1.77 1.79 1.76 1.75 1.65 1.56 1.48 1.42 1.36 1.56 1.59 1.62 1.65 1.72 1.74 1.76 1.69 1.29 1.47 1.59 1.77 1.91 2.07 2.17 2.18 2.16 2.10
1.70 1.74 1.84 1.74 1.65 1.62 1.57 1.57 1.62 1.58 1.60 1.71 1.73 1.70 1.70 1.76 1.80 1.77 1.83 1.82 1.70 1.63 1.55 1.43 1.36 1.42 1.40 1.52 1.62 1.60 1.72 1.70 1.70 1.49 1.48 1.80 1.93 2.05 2.04 2.11 2.01 2.07 2.09
1.65 1.71 1.74 1.75 1.76 1.78 1.78 1.78 1.88 1.95 1.88 1.72 1.72 1.72 1.72 1.71 1.78 1.79 1.76 1.75 1.73 1.71 1.67 1.62 1.52 1.48 1.47 1.48 1.51 1.49 1.58 1.55 1.57 1.54 1.56 1.71 1.85 2.01 2.02 1.92 1.87 1.97 1.89
1.59 1.65 1.63 1.73 1.82 1.83 1.85 1.93 1.98 1.98 1.80 1.74 1.70 1.69 1.77 1.81 1.77 1.83 1.78 1.76 1.74 1.72 1.70 1.65 1.64 1.63 1.66 1.67 1.61 1.52 1.56 1.53 1.55 1.54 1.47 1.61 1.72 1.79 1.79 1.87 1.80 1.80 1.73
1.55 1.57 1.68 1.63 1.65 1.68 1.76 1.71 1.68 1.67 1.68 1.79 1.65 1.59 1.70 1.80 1.87 1.87 1.89 1.82 1.81 1.80 1.74 1.75 1.72 1.70 1.71 1.72 1.71 1.72 1.71 1.60 1.54 1.54 1.47 1.48 1.57 1.71 1.79 1.75 1.71 1.58 1.43
1.43 1.50 1.62 1.94 1.74 1.72 1.62 1.62 1.54 1.52 1.59 1.55 1.49 1.62 1.71 1.74 1.80 1.77 1.84 2.11 2.09 1.99 1.91 1.85 1.84 1.80 1.72 1.72 1.69 1.71 1.75 1.76 1.77 1.67 1.55 1.56 1.58 1.70 1.73 1.68 1.69 1.61 1.53
1.57 1.63 1.73 1.74 1.58 1.58 1.54 1.51 1.48 1.40 1.37 1.39 1.43 1.50 1.52 1.55 1.72 1.89 1.98 2.05 2.10 2.12 2.08 1.98 1.83 1.79 1.83 1.78 1.71 1.60 1.59 1.66 1.74 1.78 1.72 1.64 1.73 1.78 1.73 1.72 1.74 1.66 1.70
1.60 1.65 1.59 1.58 1.45 1.38 1.32 1.23 1.19 1.13 1.06 1.01 1.04 1.09 1.12 1.16 1.33 1.44 1.49 1.58 1.66 1.78 1.92 1.88 1.87 1.88 1.92 1.89 1.83 1.71 1.64 1.65 1.75 1.75 1.76 1.77 1.80 1.88 1.88 1.81 1.64 1.57 1.52
1.54 1.51 1.44 1.39 1.29 1.15 1.10 1.05 0.99 0.93 0.86 0.84 0.84 0.87 0.88 0.83 0.88 0.92 0.97 1.03 1.14 1.28 1.50 1.64 1.71 1.66 1.80 1.92 1.88 1.79 1.74 1.81 1.87 1.85 1.80 1.83 1.89 1.91 1.93 1.88 1.77 1.58 1.59
1.40 1.34 1.28 1.22 1.12 1.06 0.97 0.88 0.85 0.84 0.82 0.78 0.76 0.77 0.77 0.78 0.81 0.86 0.90 0.89 0.86 0.91 1.05 1.21 1.54 1.71 1.88 2.07 2.09 1.96 1.88 1.98 2.01 2.01 1.96 1.95 1.91 1.90 1.91 1.92 1.87 1.75 1.60
1.27 1.21 1.16 1.06 0.95 0.87 0.81 0.84 0.84 0.83 0.71 0.69 0.71 0.76 0.83 0.85 0.86 0.86 0.89 0.93 0.95 0.86 0.86 1.04 1.27 1.58 1.72 1.86 2.02 2.01 2.02 2.10 2.05 2.03 1.90 1.89 1.87 1.93 1.90 1.86 1.81 1.70 1.69
1.16 1.05 0.93 0.86 0.83 0.86 0.86 0.88 0.86 0.70 0.66 0.68 0.72 0.77 0.83 0.93 0.96 0.97 0.96 0.96 0.97 0.93 0.90 0.94 1.14 1.39 1.65 1.65 1.77 1.79 1.80 1.83 1.86 1.81 1.78 1.76 1.78 1.82 1.85 1.79 1.77 1.70 1.62
0.97 0.93 0.90 0.87 0.90 0.95 0.94 0.90 0.77 0.67 0.67 0.69 0.71 0.75 0.83 0.91 0.98 1.06 1.10 1.12 1.12 1.11 1.04 1.01 1.06 1.23 1.36 1.44 1.47 1.54 1.61 1.64 1.66 1.69 1.75 1.73 1.73 1.64 1.62 1.65 1.60 1.52 1.39
0.97 0.98 0.95 0.98 0.93 0.92 0.88 0.85 0.72 0.71 0.71 0.71 0.76 0.80 0.83 0.88 1.01 1.14 1.19 1.21 1.25 1.28 1.26 1.16 1.05 1.10 1.13 1.25 1.27 1.35 1.43 1.47 1.47 1.56 1.60 1.56 1.55 1.53 1.53 1.57 1.46 1.39 1.23
1.04 1.01 0.96 0.95 0.92 0.91 0.87 0.71 0.73 0.75 0.76 0.84 0.87 0.88 0.95 1.03 1.13 1.24 1.33 1.38 1.38 1.47 1.39 1.24 1.13 1.08 1.10 1.23 1.21 1.25 1.33 1.35 1.38 1.44 1.46 1.44 1.49 1.42 1.39 1.44 1.41 1.24 1.13
1.00 0.96 0.96 0.92 0.92 0.89 0.80 0.68 0.59 0.68 0.77 0.85 0.87 0.92 1.01 1.09 1.19 1.31 1.38 1.39 1.48 1.47 1.39 1.42 1.30 1.26 1.27 1.24 1.30 1.28 1.28 1.35 1.39 1.41 1.37 1.33 1.33 1.32 1.33 1.22 1.22 1.14 1.03
1.00 1.00 0.95 0.94 0.98 0.93 0.82 0.70 0.62 0.63 0.63 0.72 0.86 0.93 1.05 1.14 1.22 1.32 1.41 1.48 1.37 1.46 1.50 1.34 1.35 1.37 1.36 1.31 1.31 1.32 1.33 1.34 1.31 1.29 1.29 1.27 1.22 1.17 1.09 1.02 0.93 0.83 0.71
1.04 1.01 0.98 0.98 1.04 0.97 0.81 0.72 0.64 0.63 0.64 0.69 0.80 0.90 1.02 1.11 1.22 1.31 1.36 1.35 1.37 1.37 1.37 1.34 1.40 1.45 1.43 1.44 1.40 1.35 1.37 1.34 1.29 1.24 1.20 1.28 1.22 1.04 0.90 0.82 0.66 0.59 0.63
1.12 1.12 1.11 1.07 1.08 0.97 0.81 0.72 0.59 0.59 0.63 0.67 0.70 0.74 0.90 0.98 0.99 1.15 1.27 1.30 1.28 1.28 1.30 1.34 1.38 1.39 1.42 1.40 1.36 1.37 1.33 1.24 1.20 1.20 1.13 1.04 0.92 0.73 0.58 0.58 0.61 0.62 0.64
1.19 1.18 1.19 1.15 1.10 1.00 0.81 0.74 0.60 0.52 0.58 0.64 0.67 0.74 0.75 0.79 0.86 0.91 0.96 1.06 1.16 1.19 1.21 1.28 1.32 1.32 1.30 1.25 1.23 1.19 1.18 1.09 1.01 0.95 0.86 0.77 0.66 0.57 0.62 0.63 0.62 0.64 0.64
1.24 1.27 1.26 1.18 1.16 0.97 0.79 0.70 0.59 0.52 0.48 0.52 0.56 0.62 0.72 0.74 0.72 0.75 0.79 0.82 0.86 0.93 0.96 0.96 0.98 0.97 0.95 0.92 0.90 0.87 0.80 0.73 0.69 0.67 0.61 0.59 0.58 0.62 0.64 0.65 0.64 0.63 0.61
1.27 1.29 1.27 1.23 1.12 0.88 0.76 0.70 0.65 0.58 0.50 0.46 0.48 0.47 0.50 0.56 0.62 0.63 0.64 0.66 0.68 0.69 0.72 0.72 0.70 0.70 0.71 0.66 0.63 0.61 0.56 0.56 0.57 0.57 0.55 0.60 0.60 0.61 0.62 0.60 0.60 0.59 0.58
1.29 1.31 1.26 1.12 0.98 0.80 0.75 0.70 0.69 0.65 0.60 0.56 0.51 0.45 0.44 0.43 0.41 0.43 0.44 0.46 0.47 0.50 0.53 0.52 0.50 0.48 0.49 0.50 0.53 0.57 0.59 0.60 0.62 0.63 0.66 0.65 0.63 0.64 0.61 0.59 0.58 0.58 0.57
1.38 1.28 1.07 0.96 0.87 0.84 0.80 0.78 0.74 0.72 0.68 0.62 0.58 0.57 0.50 0.51 0.51 0.46 0.48 0.45 0.46 0.47 0.49 0.49 0.48 0.46 0.45 0.45 0.48 0.52 0.58 0.61 0.62 0.63 0.63 0.63 0.62 0.61 0.60 0.60 0.59 0.58 0.57
1.20 1.03 0.90 0.87 0.87 0.86 0.85 0.83 0.78 0.74 0.69 0.68 0.66 0.66 0.60 0.58 0.60 0.58 0.57 0.56 0.54 0.51 0.52 0.51 0.49 0.50 0.49 0.49 0.49 0.51 0.54 0.55 0.56 0.57 0.57 0.62 0.62 0.61 0.60 0.58 0.58 0.56 0.53
Wind_Speed
20 18 18 19 19 20 20 20 21 21 21 21 22 23 23 23 24 24 24 24 23 22 22 21 21 20 19 17 16 16 16 15 15 15 15 14 13 12 12 11 9 8 8
23 21 19 19 19 19 20 20 20 21 22 22 23 24 25 25 26 26 26 25 25 25 24 24 24 22 22 21 20 20 19 18 17 16 16 16 16 15 13 11 10 11 10
22 22 20 20 20 20 21 21 21 22 23 24 24 25 26 26 26 27 28 28 27 27 27 26 26 25 25 24 22 22 21 21 20 19 18 17 16 16 15 14 14 12 11
22 21 20 19 19 20 21 22 23 23 24 25 25 25 26 27 27 28 29 30 30 29 29 29 28 27 27 26 25 24 23 22 21 20 19 19 18 17 17 16 16 15 15
22 21 20 19 19 19 19 21 23 25 25 26 32 30 29 30 29 29 30 31 31 31 31 31 31 30 30 29 27 26 25 24 23 22 21 20 19 19 19 18 17 17 17
22 22 22 20 18 17 18 19 20 22 23 23 23 23 27 35 36 34 34 32 33 33 32 31 32 32 32 32 31 30 29 27 26 24 24 23 22 21 20 20 19 18 19
21 20 20 17 13 14 16 16 17 19 21 24 25 26 27 25 25 27 34 35 35 35 34 33 32 32 33 33 33 33 32 31 29 28 26 26 25 25 24 23 22 22 21
20 18 16 14 13 15 16 17 18 21 22 23 24 25 27 29 30 30 32 33 34 34 34 34 34 34 33 33 33 33 33 32 31 30 30 29 28 27 27 26 25 23 22
19 17 15 15 15 16 18 20 21 23 24 25 26 28 29 31 33 34 34 34 35 35 36 36 36 37 36 36 34 33 33 33 32 33 32 31 30 29 28 26 25 24 23
17 16 15 16 16 17 19 20 21 22 24 26 27 29 31 33 34 35 36 37 38 37 38 38 38 37 37 38 38 36 35 35 34 33 32 31 30 30 29 29 28 27 25
16 15 15 16 16 17 17 18 20 21 23 25 28 31 33 34 36 37 37 38 38 38 38 37 37 36 36 37 38 37 36 35 35 35 34 33 31 30 29 29 27 27 25
15 14 15 15 15 16 16 17 18 19 21 24 27 29 31 32 34 36 38 39 40 39 38 37 36 35 35 35 35 35 34 32 32 26 27 28 31 33 29 27 26 25 23
15 15 14 14 14 14 14 15 16 17 20 23 26 26 27 28 29 31 34 36 38 39 38 38 36 35 34 33 33 33 32 30 29 27 25 25 25 23 27 23 22 20 18
15 15 14 12 11 11 12 13 13 16 19 23 25 25 26 26 27 27 28 30 32 34 35 36 35 34 34 33 32 31 31 29 28 26 23 21 20 18 19 20 19 17 14
14 12 11 9 9 9 9 11 13 15 18 23 25 26 26 25 25 26 26 26 27 28 29 30 32 31 30 29 28 28 28 28 26 24 22 21 19 19 16 17 13 15 14
12 11 9 9 7 7 8 10 11 14 18 22 25 27 26 25 24 22 21 20 21 21 23 26 27 28 28 27 25 25 25 24 24 22 20 18 16 16 15 17 16 15 14
11 10 9 8 7 6 7 9 11 13 16 20 25 28 27 23 21 17 14 11 13 14 15 16 19 21 22 23 22 22 21 21 21 20 19 17 15 15 15 16 14 12 11
12 11 9 8 7 7 7 8 9 11 14 19 24 27 26 24 19 15 10 5 1 3 6 8 12 14 16 18 17 18 18 17 17 17 17 14 14 13 12 11 10 9 10
13 12 10 9 8 7 7 7 8 9 11 15 20 24 27 24 21 17 12 8 4 2 3 3 7 11 12 13 14 14 14 14 14 15 13 14 11 11 10 10 9 9 9
14 13 12 11 9 9 8 8 8 8 9 11 14 19 22 24 26 20 17 13 11 10 9 9 9 10 12 12 13 14 13 13 12 12 12 12 10 10 10 10 10 9 9
16 15 13 11 11 10 10 9 8 8 7 8 9 11 15 17 20 21 22 22 18 15 13 10 8 9 10 9 9 11 12 12 11 11 10 10 10 9 10 10 10 10 9
17 16 14 13 12 11 11 10 9 8 7 6 6 6 7 9 11 12 14 15 16 15 14 15 15 14 13 11 10 9 8 9 9 8 8 7 8 9 9 9 9 9 8
18 17 15 14 13 12 11 10 9 8 7 6 5 4 4 4 4 5 6 8 8 8 8 8 8 7 6 5 5 5 5 5 5 6 7 7 8 8 9 9 9 8 8
18 17 16 15 14 13 12 11 10 9 8 7 7 6 5 4 3 2 2 3 4 4 5 5 4 4 3 3 2 2 2 3 3 4 5 6 6 7 8 9 8 8 8
18 17 16 15 13 12 11 11 11 11 10 9 8 8 7 6 5 5 4 3 2 1 1 0 1 1 0 0 1 1 2 3 3 4 5 6 7 8 9 9 9 9 9
18 17 16 15 15 14 14 13 12 12 12 11 11 10 9 8 8 7 7 6 6 6 5 5 4 4 4 3 3 4 4 4 5 6 6 7 7 8 9 9 9 10 10
Wind_Direction
222 225 227 229 231 232 235 237 240 242 244 245 245 245 245 245 246 246 243 244 245 247 247 250 252 253 255 258 259 259 260 265 267 273 272 273 274 280 285 275 271 278 290
224 226 230 232 233 235 238 241 244 246 247 248 249 248 248 249 248 247 244 244 247 248 249 250 252 252 255 258 259 260 261 264 266 268 272 271 270 274 275 270 269 280 282
224 226 230 234 236 240 242 245 248 251 252 254 253 252 251 250 250 247 246 246 249 249 250 251 251 251 255 256 259 260 260 263 263 265 269 270 270 267 263 264 270 276 283
223 225 230 234 238 244 247 250 252 254 257 257 256 255 254 253 251 250 249 248 250 251 252 252 252 252 253 255 257 258 259 259 260 262 265 267 267 266 264 262 266 272 278
225 226 231 236 241 250 255 256 256 260 277 266 254 254 256 254 252 251 251 250 250 251 251 251 252 252 252 254 256 257 257 257 258 260 263 265 263 263 261 261 264 268 274
227 230 234 235 242 251 258 262 265 267 270 270 271 248 268 257 252 254 252 251 251 251 251 252 253 253 253 253 254 255 256 256 257 259 262 262 262 261 260 260 263 267 273
223 230 239 233 240 250 262 268 273 276 273 270 266 266 265 262 261 260 247 254 253 251 252 253 254 254 253 254 254 254 255 256 257 259 260 260 261 259 260 260 262 266 270
220 228 235 242 251 259 267 273 278 281 281 278 273 270 267 263 263 260 259 257 256 254 253 252 253 255 254 253 254 253 253 255 256 258 260 261 261 260 258 259 261 264 268
220 224 236 244 258 267 273 278 282 284 284 281 277 274 271 269 266 263 261 260 258 256 254 254 257 255 254 252 252 252 253 254 256 258 260 260 259 257 257 256 258 260 266
224 232 244 255 264 273 278 283 286 287 287 286 283 279 276 273 269 266 263 261 259 257 256 256 256 256 252 251 251 251 253 255 256 257 258 258 256 256 254 257 256 259 261
228 239 252 262 269 275 281 287 290 294 294 293 290 286 281 276 272 268 264 261 259 257 256 256 254 254 253 252 250 251 252 254 255 255 258 255 256 253 253 255 257 256 257
232 245 257 265 270 277 284 290 294 300 303 304 302 296 289 282 276 271 265 261 259 256 255 254 252 252 251 252 250 251 252 254 260 263 254 258 260 253 252 248 254 251 259
240 253 260 263 271 280 287 294 299 306 313 316 312 306 301 293 285 277 270 264 259 254 252 251 251 248 250 251 251 250 250 253 255 257 261 266 261 255 252 240 254 256 248
247 255 255 259 267 279 290 298 304 312 321 325 324 318 310 303 295 284 276 268 259 255 250 247 246 246 248 250 250 248 248 250 251 252 254 258 252 256 241 246 240 249 246
246 241 238 246 262 278 291 303 312 316 325 331 332 328 321 313 306 293 279 270 260 254 246 243 240 240 243 244 246 245 245 245 245 247 249 251 255 251 250 219 240 258 253
223 222 229 245 255 276 296 311 319 325 331 337 340 339 332 324 317 308 287 270 261 248 244 239 238 237 238 239 240 241 241 240 239 239 241 240 242 235 233 235 259 263 245
210 217 227 237 255 274 298 315 327 334 342 347 349 348 347 341 336 331 319 286 252 242 234 234 231 229 231 233 234 234 234 235 229 227 229 233 232 226 233 257 246 236 231
214 218 226 242 257 275 294 310 326 337 347 355 360 2 2 3 1 358 353 3 234 199 205 222 222 220 220 224 225 221 219 217 218 218 218 222 225 226 232 228 216 220 235
218 225 233 243 258 276 288 301 317 333 346 358 6 12 16 18 22 27 35 47 66 126 181 209 220 194 201 207 202 199 197 197 198 201 208 208 206 197 201 217 231 229 231
223 225 234 244 256 268 276 290 301 314 334 351 3 15 24 33 36 43 49 61 71 85 93 105 133 141 131 145 159 169 174 187 192 197 188 191 201 214 222 222 221 222 226
224 229 236 245 255 261 267 277 286 295 308 330 351 12 23 33 43 51 55 60 70 82 87 92 126 130 129 145 158 166 175 165 171 178 188 207 219 222 222 216 225 224 215
226 230 236 246 253 256 259 268 274 279 289 303 323 344 10 30 39 44 52 60 68 77 84 88 93 101 107 110 123 133 151 166 176 191 198 203 214 219 217 211 212 213 215
226 229 237 245 247 249 252 257 262 266 273 283 294 310 333 352 9 28 43 51 61 69 76 84 89 91 98 103 119 136 153 171 187 203 210 214 218 213 213 213 212 215 225
225 230 236 240 240 242 245 249 252 256 263 270 275 273 277 284 300 328 23 58 71 74 75 78 79 86 90 98 114 146 172 180 189 204 219 225 225 220 217 214 216 226 245
222 227 230 228 230 235 241 246 250 253 257 260 262 262 260 260 260 259 260 256 251 249 268 334 12 24 42 352 223 223 225 228 242 252 246 236 229 223 220 224 234 246 261
220 223 224 228 233 239 243 248 251 254 254 252 253 254 253 250 250 252 253 254 256 257 259 261 265 269 269 273 273 262 258 263 267 267 252 234 233 232 232 236 245 259 271